Location: Newark
(42.7133°N, 87.7910°W)
Time: 14:10:56
(UTC+00:00)

Tiros 1 - All Passes

Search period start: 20 September 2019 00:00
Search period end: 30 September 2019 00:00
Orbit: 630 x 664 km, 48.4° (Epoch: 20 September)

Date Brightness Start Highest point End Pass type
(mag) Time Alt. Az. Time Alt. Az. Time Alt. Az.
20 Sep - 01:24:47 10° WNW 01:28:58 34° SW 01:33:08 10° SSE visible
20 Sep - 17:20:20 10° S 17:23:40 19° SE 17:27:00 10° E daylight
20 Sep - 19:00:37 10° WSW 19:05:22 81° SSE 19:10:05 10° ENE daylight
20 Sep - 20:43:19 10° W 20:47:51 45° N 20:52:20 10° ENE daylight
20 Sep - 22:26:08 10° WNW 22:30:40 46° N 22:35:09 10° E daylight
21 Sep - 00:08:26 10° WNW 00:13:05 72° SSW 00:17:41 10° SE daylight
21 Sep - 01:51:50 10° W 01:54:40 16° SW 01:57:29 10° S visible
21 Sep - 17:45:00 10° SSW 17:49:25 39° SE 17:53:49 10° ENE daylight
21 Sep - 19:26:48 10° WSW 19:31:31 63° NNW 19:36:11 10° ENE daylight
21 Sep - 21:09:47 10° WNW 21:14:14 41° N 21:18:40 10° ENE daylight
21 Sep - 22:52:17 10° WNW 22:56:57 64° NNE 23:01:34 10° ESE daylight
22 Sep - 00:34:44 10° WNW 00:39:01 37° SW 00:43:14 10° SSE visible
22 Sep - 16:30:32 10° S 16:33:42 18° SE 16:36:51 10° E daylight
22 Sep - 18:10:36 10° SW 18:15:21 76° SSE 18:20:05 10° ENE daylight
22 Sep - 19:53:15 10° W 19:57:49 46° N 20:02:20 10° ENE daylight
22 Sep - 21:36:06 10° WNW 21:40:38 45° N 21:45:07 10° E daylight
22 Sep - 23:18:24 10° WNW 23:23:05 77° SSW 23:27:42 10° SE daylight
23 Sep - 01:01:39 10° W 01:04:43 17° SW 01:07:45 10° S visible
23 Sep - 16:55:03 10° SSW 16:59:25 37° SE 17:03:46 10° ENE daylight
23 Sep - 18:36:45 10° WSW 18:41:29 66° NNW 18:46:10 10° ENE daylight
23 Sep - 20:19:43 10° WNW 20:24:12 41° N 20:28:38 10° ENE daylight
23 Sep - 22:02:16 10° WNW 22:06:56 62° NNE 22:11:32 10° E daylight
23 Sep - 23:44:40 10° WNW 23:49:02 39° SW 23:53:20 10° SSE daylight
24 Sep - 15:40:46 10° S 15:43:44 16° SE 15:46:41 10° E daylight
24 Sep - 17:20:36 10° SW 17:25:20 72° SSE 17:30:04 10° ENE daylight
24 Sep - 19:03:11 10° W 19:07:46 47° NNW 19:12:19 10° ENE daylight
24 Sep - 20:46:03 10° WNW 20:50:35 44° N 20:55:05 10° E daylight
24 Sep - 22:28:23 10° WNW 22:33:05 82° SSW 22:37:43 10° ESE daylight
25 Sep - 00:11:29 10° W 00:14:45 19° SW 00:18:00 10° S visible
25 Sep - 16:05:07 10° SSW 16:09:26 34° SE 16:13:43 10° ENE daylight
25 Sep - 17:46:42 10° WSW 17:51:27 69° NNW 17:56:10 10° ENE daylight
25 Sep - 19:29:39 10° WNW 19:34:10 41° N 19:38:36 10° ENE daylight
25 Sep - 21:12:14 10° WNW 21:16:54 59° NNE 21:21:31 10° E daylight
25 Sep - 22:54:37 10° WNW 22:59:03 43° SW 23:03:25 10° SSE daylight
26 Sep - 14:51:02 10° SSE 14:53:45 15° SE 14:56:28 10° E daylight
26 Sep - 16:30:35 10° SW 16:35:20 67° SSE 16:40:03 10° ENE daylight
26 Sep - 18:13:06 10° W 18:17:44 48° NNW 18:22:18 10° ENE daylight
26 Sep - 19:56:01 10° WNW 20:00:32 44° N 20:05:02 10° E daylight
26 Sep - 21:38:21 10° WNW 21:43:05 87° SSW 21:47:44 10° ESE daylight
26 Sep - 23:21:20 10° W 23:24:47 21° SW 23:28:13 10° S daylight
27 Sep - 15:15:12 10° SSW 15:19:27 32° SE 15:23:39 10° ENE daylight
27 Sep - 16:56:38 10° WSW 17:01:26 72° NNW 17:06:10 10° ENE daylight
27 Sep - 18:39:35 10° WNW 18:44:06 41° N 18:48:34 10° ENE daylight
27 Sep - 20:22:12 10° WNW 20:26:52 57° NNE 20:31:29 10° E daylight
27 Sep - 22:04:33 10° WNW 22:09:03 46° SW 22:13:29 10° SE daylight
28 Sep - 14:01:22 10° SSE 14:03:47 14° SE 14:06:13 10° E daylight
28 Sep - 15:40:35 10° SW 15:45:19 63° SSE 15:50:02 10° ENE daylight
28 Sep - 17:23:02 10° W 17:27:41 50° NNW 17:32:17 10° ENE daylight
28 Sep - 19:05:57 10° WNW 19:10:30 43° N 19:15:00 10° E daylight
28 Sep - 20:48:19 10° WNW 20:53:04 89° NE 20:57:44 10° ESE daylight
28 Sep - 22:31:12 10° W 22:34:50 22° SW 22:38:26 10° S daylight
29 Sep - 14:25:18 10° SSW 14:29:27 30° SE 14:33:35 10° E daylight
29 Sep - 16:06:35 10° WSW 16:11:23 76° NNW 16:16:10 10° ENE daylight
29 Sep - 17:49:30 10° WNW 17:54:03 42° N 17:58:33 10° ENE daylight
29 Sep - 19:32:10 10° WNW 19:36:50 55° NNE 19:41:27 10° E daylight
29 Sep - 21:14:30 10° WNW 21:19:04 49° SW 21:23:33 10° SE daylight
